Preview of NWS' New Version of Forecast
This preview is not operational and should not be used for support decisions.

Regional Weather Roundup (RWR)

Issued by Gray - Portland, ME (GYX)

                            
000
ASUS41 KGYX 211610
RWRGYX
WEATHER ROUNDUP FOR MAINE AND NEW HAMPSHIRE
NATIONAL WEATHER SERVICE GRAY ME
1200 PM EDT WED AUG 21 2019

MEZ002-005-006-010-012-015-018-020-021-024-026-027-029-211700-
MAINE
  
CITY           SKY/WX    TMP DP  RH WIND       PRES   REMARKS
PORTLAND       CLOUDY    75  68  78 S6        29.95F                  
SANFORD        FAIR      72  69  90 SW7       29.97F                  
BAR HARBOR     FAIR      75  66  73 SW16      29.98F                  
WISCASSET      CLOUDY    74  65  73 S7        29.98F                  
ROCKLAND       PTSUNNY   74  67  78 S9        29.97F                  
FRYEBURG       FAIR      68  63  84 CALM      29.96F                  
LEWISTONAUBURN LGT RAIN  71  65  81 S7        29.95F                  
AUGUSTA        FAIR      75  67  76 S7        29.96F                  
WATERVILLE     FAIR      73  65  75 SW6       29.93F                  
BANGOR         PTSUNNY   76  66  71 S8        29.96F                  
GREENVILLE     NOT AVBL                                               
MILLINOCKET    FAIR      74  63  68 S3        29.95F                  
HOULTON        FAIR      79  60  52 S9        29.93F                  
PRESQUE ISLE   FAIR      81  59  47 S14       29.92F                  
FRENCHVILLE    FAIR      74  56  53 S13       29.91F                  
CARIBOU        FAIR      79  60  52 S9        29.91F                  
$$

NHZ002-005-008-009-011-012-014-211700-
NEW HAMPSHIRE
  
CITY           SKY/WX    TMP DP  RH WIND       PRES   REMARKS
ROCHESTER      LGT RAIN  72  68  87 CALM      29.96F                  
NASHUA         CLOUDY    75  72  90 CALM      29.96F                  
MANCHESTER     CLOUDY    75  69  81 S3        29.94F                  
CONCORD        CLOUDY    68  66  93 CALM      29.96F                  
LACONIA        LGT RAIN  66  66 100 W6        29.98F                  
PLYMOUTH       LGT RAIN  62  61  96 CALM      29.97F                  
BERLIN         NOT AVBL                                               
WHITEFIELD     FAIR      70  59  68 CALM      29.95F                  
JAFFREY        FAIR      75  68  78 CALM      29.98F                  
KEENE          FAIR      73  69  87 SW6       29.94F                  
LEBANON        LGT RAIN  69  64  84 NE6       29.93F                  
MT WASHINGTON  PTSUNNY   55  50  82 W20         N/A                   
$$

VTZ005-007-008-211700-
VERMONT
  
CITY           SKY/WX    TMP DP  RH WIND       PRES   REMARKS
ST JOHNSBURY     N/A     69  62  78 MISG      29.92F                  
MONTPELIER     LGT RAIN  70  62  76 SW8       29.98S                  
BURLINGTON     RAIN      70  67  90 CALM      29.91R FOG              
$$

MAZ007-012-024-CTZ003-RIZ002-NYZ038-NYZ072-211700-
SOUTHERN NEW ENGLAND AND NY
  
CITY           SKY/WX    TMP DP  RH WIND       PRES   REMARKS
BOSTON         CLOUDY    82  70  66 SE7       29.95F                  
WORCESTER      CLOUDY    75  71  87 SW13      29.98F                  
NANTUCKET      TSTM      71  70  96 SW18G26   30.04R FOG              
PROVIDENCE     PTSUNNY   79  76  90 SE15      29.96F                  
HARTFORD       PTSUNNY   83  73  72 S8        29.93F                  
ALBANY         LGT RAIN  74  70  87 S6        29.91F                  
NEW YORK CITY  CLOUDY    87  68  52 SW13G21   29.93S HX  90           
$$

ANZ081-ANZ082-ANZ150-NHZ014-MEZ023>029-211700-
COASTAL MARINE OBSERVATIONS
  
STATION/POSITION TIME  TEMP    WIND        PRES    WAVE
                       AIR SEA DIR/SP/G            HT/PER
                 (UTC) (F)     (DEG/KT/KT) (MB)    (FT/S)
MATINICUS ROCK   1550   64                 1015.0F
ISLE OF SHOALS   1500   73     180/ 10/ 11 1014.4F
JEFFREYS LEDGE   1538      66                N/A     2/10
CASHES LEDGE BUO 1550   66 63  160/ 10/ 10 1015.7F   2/ 6
GEORGES BANK BUO 1550   72 68  100/  6/  6 1018.2F   2/10
$$

.............KEY..............
   WCI - WIND CHILL
   TC  - TEMPERATURE IN CELSIUS
   VSB - VISIBILITY IN MILES
   HX  - HEAT INDEX
   FAIR- INDICATES FEW OR NO CLOUDS BELOW 12,000 FT, WITH NO 
         SIGNIFICANT WEATHER AND/OR OBSTRUCTIONS TO VISIBILITY.